,,Stat6,,Stat2,,Stat8,,Stat9,,Stat10,,Wind1,,Wind1,
time,status,PA1M_AVG,status,PR1M_SUM,status,RH1M_AVG,status,SR1M_AVG,status,TA1M_AVG,status,W1dAve1m,status,W1sAve1m,
2004-04-04, 00:00:00,VALID,921.633,VALID,0,VALID,100,VALID,-0.0169808,VALID,19.7539,VALID,262,VALID,0.244271,
2004-04-04, 00:01:00,VALID,921.622,VALID,0,VALID,100,VALID,-0.0509425,VALID,19.7606,VALID,280,VALID,0.27567,
2004-04-04, 00:02:00,VALID,921.597,VALID,0,VALID,100,VALID,0,VALID,19.7186,VALID,262,VALID,0.328683,
2004-04-04, 00:03:00,VALID,921.583,VALID,0,VALID,100,VALID,-0.0339617,VALID,19.6925,VALID,261,VALID,0.136009,
2004-04-04, 00:04:00,VALID,921.582,VALID,0,VALID,100,VALID,-0.0169808,VALID,19.6764,VALID,261,VALID,0.143532,
2004-04-04, 00:05:00,VALID,921.563,VALID,0,VALID,100,VALID,0,VALID,19.6958,VALID,261,VALID,0.0230741,
2004-04-04, 00:06:00,VALID,921.566,VALID,0,VALID,100,VALID,-0.0169808,VALID,19.6955,VALID,261,VALID,0.0724927,
2004-04-04, 00:07:00,VALID,921.574,VALID,0,VALID,100,VALID,-0.0169808,VALID,19.6506,VALID,262,VALID,0.20191,
2004-04-04, 00:08:00,VALID,921.574,VALID,0,VALID,100,VALID,0,VALID,19.6056,VALID,262,VALID,0.068407,
2004-04-04, 00:09:00,VALID,921.582,VALID,0,VALID,100,VALID,0,VALID,19.6029,VALID,262,VALID,0,
2004-04-04, 00:10:00,VALID,921.577,VALID,0,VALID,100,VALID,0,VALID,19.6058,VALID,262,VALID,0.118278,
2004-04-04, 00:11:00,VALID,921.594,VALID,0,VALID,100,VALID,-0.0339617,VALID,19.6088,VALID,264,VALID,0.314236,
2004-04-04, 00:12:00,VALID,921.612,VALID,0,VALID,100,VALID,-0.0679233,VALID,19.6284,VALID,338,VALID,0.480373,
2004-04-04, 00:13:00,VALID,921.625,VALID,0,VALID,100,VALID,-0.0849042,VALID,19.6349,VALID,4,VALID,0.631771,
2004-04-04, 00:14:00,VALID,921.612,VALID,0,VALID,100,VALID,-0.0169808,VALID,19.6667,VALID,23,VALID,0.651634,
2004-04-04, 00:15:00,VALID,921.621,VALID,0,VALID,100,VALID,-0.0679233,VALID,19.6764,VALID,40,VALID,0.636133,
2004-04-04, 00:16:00,VALID,921.611,VALID,0,VALID,100,VALID,-0.0339617,VALID,19.6667,VALID,41,VALID,0.74314,
2004-04-04, 00:17:00,VALID,921.595,VALID,0,VALID,100,VALID,0,VALID,19.6374,VALID,36,VALID,0.52689,
2004-04-04, 00:18:00,VALID,921.59,VALID,0,VALID,100,VALID,-0.0509425,VALID,19.6704,VALID,35,VALID,0.426258,
2004-04-04, 00:19:00,VALID,921.592,VALID,0,VALID,100,VALID,-0.0339617,VALID,19.6672,VALID,32,VALID,0.616629,
2004-04-04, 00:20:00,VALID,921.593,VALID,0,VALID,100,VALID,-0.0169808,VALID,19.696,VALID,18,VALID,0.759487,
2004-04-04, 00:21:00,VALID,921.582,VALID,0,VALID,100,VALID,-0.0339617,VALID,19.6697,VALID,24,VALID,0.827934,
2004-04-04, 00:22:00,VALID,921.58,VALID,0,VALID,100,VALID,-0.0169808,VALID,19.6697,VALID,18,VALID,0.845846,
2004-04-04, 00:23:00,VALID,921.555,VALID,0,VALID,100,VALID,-0.0169808,VALID,19.654,VALID,28,VALID,1.1815,
2004-04-04, 00:24:00,VALID,921.535,VALID,0,VALID,100,VALID,-0.0169808,VALID,19.6245,VALID,22,VALID,0.901708,
2004-04-04, 00:25:00,VALID,921.503,VALID,0,VALID,100,VALID,-0.0169808,VALID,19.6376,VALID,19,VALID,0.594993,
2004-04-04, 00:26:00,VALID,921.488,VALID,0,VALID,100,VALID,-0.0169808,VALID,19.6538,VALID,12,VALID,0.566406,
2004-04-04, 00:27:00,VALID,921.455,VALID,0,VALID,100,VALID,-0.0169808,VALID,19.654,VALID,1,VALID,0.251065,
2004-04-04, 00:28:00,VALID,921.443,VALID,0,VALID,100,VALID,0,VALID,19.6441,VALID,3,VALID,0.362749,
2004-04-04, 00:29:00,VALID,921.431,VALID,0,VALID,100,VALID,0,VALID,19.6533,VALID,6,VALID,0.146723,
2004-04-04, 00:30:00,VALID,921.424,VALID,0,VALID,100,VALID,0,VALID,19.6535,VALID,4,VALID,0.434126,
2004-04-04, 00:31:00,VALID,921.412,VALID,0,VALID,100,VALID,-0.0169808,VALID,19.6575,VALID,3,VALID,0.117365,
2004-04-04, 00:32:00,VALID,921.409,VALID,0,VALID,100,VALID,-0.0339617,VALID,19.6411,VALID,3,VALID,0,
2004-04-04, 00:33:00,VALID,921.399,VALID,0,VALID,100,VALID,0,VALID,19.654,VALID,3,VALID,0,
2004-04-04, 00:34:00,VALID,921.392,VALID,0,VALID,100,VALID,-0.0169808,VALID,19.6538,VALID,3,VALID,0,
2004-04-04, 00:35:00,VALID,921.379,VALID,0,VALID,100,VALID,0,VALID,19.6212,VALID,3,VALID,0,
2004-04-04, 00:36:00,VALID,921.373,VALID,0,VALID,100,VALID,-0.0169808,VALID,19.6024,VALID,3,VALID,0,
2004-04-04, 00:37:00,VALID,921.354,VALID,0,VALID,100,VALID,0,VALID,19.6153,VALID,3,VALID,0,
2004-04-04, 00:38:00,VALID,921.336,VALID,0,VALID,100,VALID,0.0169808,VALID,19.6081,VALID,3,VALID,0.24442,
2004-04-04, 00:39:00,VALID,921.329,VALID,0,VALID,100,VALID,0,VALID,19.6404,VALID,4,VALID,0.363554,
2004-04-04, 00:40:00,VALID,921.315,VALID,0,VALID,100,VALID,-0.0169808,VALID,19.6282,VALID,4,VALID,0.28054,
2004-04-04, 00:41:00,VALID,921.298,VALID,0,VALID,100,VALID,0,VALID,19.6376,VALID,14,VALID,0.534598,
2004-04-04, 00:42:00,VALID,921.297,VALID,0,VALID,100,VALID,0,VALID,19.6473,VALID,38,VALID,0.650082,
2004-04-04, 00:43:00,VALID,921.294,VALID,0,VALID,100,VALID,0.0169808,VALID,19.6538,VALID,45,VALID,0.708651,
2004-04-04, 00:44:00,VALID,921.284,VALID,0,VALID,100,VALID,-0.0169808,VALID,19.6446,VALID,46,VALID,0.791466,
2004-04-04, 00:45:00,VALID,921.273,VALID,0,VALID,100,VALID,0,VALID,19.6217,VALID,45,VALID,0.740234,
2004-04-04, 00:46:00,VALID,921.265,VALID,0,VALID,100,VALID,-0.0169808,VALID,19.6118,VALID,36,VALID,0.676054,
2004-04-04, 00:47:00,VALID,921.263,VALID,0,VALID,100,VALID,-0.118866,VALID,19.6068,VALID,49,VALID,0.638529,
2004-04-04, 00:48:00,VALID,921.252,VALID,0,VALID,100,VALID,-0.0679233,VALID,19.5644,VALID,60,VALID,0.641183,
2004-04-04, 00:49:00,VALID,921.242,VALID,0,VALID,100,VALID,-0.0849042,VALID,19.5385,VALID,65,VALID,0.457217,
2004-04-04, 00:50:00,VALID,921.218,VALID,0,VALID,100,VALID,-0.118866,VALID,19.5226,VALID,65,VALID,0.343395,
2004-04-04, 00:51:00,VALID,921.196,VALID,0,VALID,100,VALID,-0.0849042,VALID,19.5196,VALID,65,VALID,0.173971,
2004-04-04, 00:52:00,VALID,921.159,VALID,0,VALID,100,VALID,-0.101885,VALID,19.539,VALID,58,VALID,0.188565,
2004-04-04, 00:53:00,VALID,921.119,VALID,0,VALID,100,VALID,-0.118866,VALID,19.5716,VALID,49,VALID,0.280717,
2004-04-04, 00:54:00,VALID,921.107,VALID,0,VALID,100,VALID,-0.101885,VALID,19.6036,VALID,49,VALID,0.107617,
2004-04-04, 00:55:00,VALID,921.079,VALID,0,VALID,100,VALID,-0.101885,VALID,19.6227,VALID,49,VALID,0.272852,
2004-04-04, 00:56:00,VALID,921.051,VALID,0,VALID,100,VALID,-0.0849042,VALID,19.6096,VALID,49,VALID,0.129794,
2004-04-04, 00:57:00,VALID,921.028,VALID,0,VALID,100,VALID,-0.101885,VALID,19.578,VALID,49,VALID,0.0085747,
2004-04-04, 00:58:00,VALID,921.007,VALID,0,VALID,100,VALID,-0.118866,VALID,19.5229,VALID,49,VALID,0,
2004-04-04, 00:59:00,VALID,921.004,VALID,0,VALID,100,VALID,-0.101885,VALID,19.5263,VALID,49,VALID,0,
2004-04-04, 01:00:00,VALID,920.991,VALID,0,VALID,100,VALID,-0.101885,VALID,19.497,VALID,49,VALID,0,
2004-04-04, 01:01:00,VALID,920.989,VALID,0,VALID,100,VALID,-0.118866,VALID,19.5196,VALID,49,VALID,0,
2004-04-04, 01:02:00,VALID,920.995,VALID,0,VALID,100,VALID,0,VALID,19.5241,VALID,49,VALID,0.230564,
2004-04-04, 01:03:00,VALID,920.984,VALID,0,VALID,100,VALID,0,VALID,19.5405,VALID,40,VALID,0.451758,
2004-04-04, 01:04:00,VALID,920.986,VALID,0,VALID,100,VALID,0,VALID,19.5763,VALID,20,VALID,0.70585,
2004-04-04, 01:05:00,VALID,920.974,VALID,0,VALID,100,VALID,0,VALID,19.5693,VALID,13,VALID,0.751065,
2004-04-04, 01:06:00,VALID,920.965,VALID,0,VALID,100,VALID,0.0169808,VALID,19.5731,VALID,8,VALID,0.646307,
2004-04-04, 01:07:00,VALID,920.938,VALID,0,VALID,100,VALID,0.0339617,VALID,19.5703,VALID,344,VALID,0.198401,
2004-04-04, 01:08:00,VALID,920.923,VALID,0,VALID,100,VALID,0,VALID,19.5765,VALID,344,VALID,0.0535156,
2004-04-04, 01:09:00,VALID,920.908,VALID,0,VALID,100,VALID,0.0169808,VALID,19.5668,VALID,344,VALID,0.0838914,
2004-04-04, 01:10:00,VALID,920.891,VALID,0,VALID,100,VALID,-0.0169808,VALID,19.5604,VALID,344,VALID,0.0509588,
2004-04-04, 01:11:00,VALID,920.88,VALID,0,VALID,100,VALID,0,VALID,19.5832,VALID,340,VALID,0.170387,
2004-04-04, 01:12:00,VALID,920.871,VALID,0,VALID,100,VALID,0,VALID,19.5825,VALID,317,VALID,0.347747,
2004-04-04, 01:13:00,VALID,920.875,VALID,0,VALID,100,VALID,0,VALID,19.5765,VALID,270,VALID,0.264482,
2004-04-04, 01:14:00,VALID,920.852,VALID,0,VALID,100,VALID,0,VALID,19.5701,VALID,270,VALID,0.0360137,
2004-04-04, 01:15:00,VALID,920.848,VALID,0,VALID,100,VALID,0,VALID,19.5438,VALID,270,VALID,0.0498047,
2004-04-04, 01:16:00,VALID,920.823,VALID,0,VALID,100,VALID,0,VALID,19.5341,VALID,270,VALID,0,
2004-04-04, 01:17:00,VALID,920.808,VALID,0,VALID,100,VALID,0,VALID,19.5313,VALID,270,VALID,0.0010016,
2004-04-04, 01:18:00,VALID,920.787,VALID,0,VALID,100,VALID,-0.0169808,VALID,19.538,VALID,270,VALID,0.13058,
2004-04-04, 01:19:00,VALID,920.765,VALID,0,VALID,100,VALID,-0.0339617,VALID,19.5413,VALID,269,VALID,0.250174,
2004-04-04, 01:20:00,VALID,920.757,VALID,0,VALID,100,VALID,0,VALID,19.541,VALID,215,VALID,0.346484,
2004-04-04, 01:21:00,VALID,920.744,VALID,0,VALID,100,VALID,0,VALID,19.5408,VALID,213,VALID,0.29581,
2004-04-04, 01:22:00,VALID,920.724,VALID,0,VALID,100,VALID,0,VALID,19.5477,VALID,213,VALID,0.157366,
2004-04-04, 01:23:00,VALID,920.711,VALID,0,VALID,100,VALID,0,VALID,19.5666,VALID,213,VALID,0.175872,
2004-04-04, 01:24:00,VALID,920.7,VALID,0,VALID,100,VALID,0,VALID,19.5509,VALID,213,VALID,0.216797,
2004-04-04, 01:25:00,VALID,920.686,VALID,0,VALID,100,VALID,0,VALID,19.5442,VALID,213,VALID,0.202009,
2004-04-04, 01:26:00,VALID,920.668,VALID,0,VALID,100,VALID,0.0169808,VALID,19.5447,VALID,213,VALID,0.207386,
2004-04-04, 01:27:00,VALID,920.659,VALID,0,VALID,100,VALID,-0.0169808,VALID,19.5184,VALID,213,VALID,0.19112,
2004-04-04, 01:28:00,VALID,920.638,VALID,0,VALID,100,VALID,0,VALID,19.5087,VALID,213,VALID,0.0933866,
2004-04-04, 01:29:00,VALID,920.635,VALID,0,VALID,100,VALID,0,VALID,19.5122,VALID,213,VALID,0.297852,
2004-04-04, 01:30:00,VALID,920.626,VALID,0,VALID,100,VALID,0,VALID,19.5122,VALID,213,VALID,0.174352,
2004-04-04, 01:31:00,VALID,920.622,VALID,0,VALID,100,VALID,-0.0169808,VALID,19.5184,VALID,213,VALID,0.184832,
2004-04-04, 01:32:00,VALID,920.602,VALID,0,VALID,100,VALID,-0.0339617,VALID,19.4896,VALID,213,VALID,0.179116,
2004-04-04, 01:33:00,VALID,920.595,VALID,0,VALID,100,VALID,0,VALID,19.4764,VALID,213,VALID,0.201079,
2004-04-04, 01:34:00,VALID,920.575,VALID,0,VALID,100,VALID,0,VALID,19.4665,VALID,213,VALID,0.0078125,
2004-04-04, 01:35:00,VALID,920.556,VALID,0,VALID,100,VALID,0.0169808,VALID,19.4859,VALID,213,VALID,0.183408,
2004-04-04, 01:36:00,VALID,920.539,VALID,0,VALID,100,VALID,0,VALID,19.5249,VALID,231,VALID,0.504755,
2004-04-04, 01:37:00,VALID,920.526,VALID,0,VALID,100,VALID,-0.0339617,VALID,19.5666,VALID,338,VALID,0.355769,
2004-04-04, 01:38:00,VALID,920.512,VALID,0,VALID,100,VALID,0,VALID,19.6185,VALID,338,VALID,0.165838,
2004-04-04, 01:39:00,VALID,920.486,VALID,0,VALID,100,VALID,0.0169808,VALID,19.6116,VALID,338,VALID,0.0314317,
2004-04-04, 01:40:00,VALID,920.463,VALID,0,VALID,100,VALID,-0.0169808,VALID,19.5894,VALID,337,VALID,0.0925347,
2004-04-04, 01:41:00,VALID,920.454,VALID,0,VALID,100,VALID,0,VALID,19.5507,VALID,337,VALID,0,
2004-04-04, 01:42:00,VALID,920.45,VALID,0,VALID,100,VALID,0,VALID,19.5569,VALID,337,VALID,0,
2004-04-04, 01:43:00,VALID,920.43,VALID,0,VALID,100,VALID,0,VALID,19.5825,VALID,337,VALID,0.0170455,
2004-04-04, 01:44:00,VALID,920.42,VALID,0,VALID,100,VALID,0,VALID,19.5892,VALID,337,VALID,0.128018,
2004-04-04, 01:45:00,VALID,920.415,VALID,0,VALID,100,VALID,0,VALID,19.5989,VALID,337,VALID,0.18051,
2004-04-04, 01:46:00,VALID,920.397,VALID,0,VALID,100,VALID,0,VALID,19.6282,VALID,337,VALID,0.0245276,
2004-04-04, 01:47:00,VALID,920.407,VALID,0,VALID,100,VALID,-0.0849042,VALID,19.6458,VALID,337,VALID,0.0893895,
2004-04-04, 01:48:00,VALID,920.388,VALID,0,VALID,100,VALID,-0.118866,VALID,19.6655,VALID,337,VALID,0.112942,
2004-04-04, 01:49:00,VALID,920.373,VALID,0,VALID,100,VALID,-0.135847,VALID,19.6553,VALID,337,VALID,0.00628811,
2004-04-04, 01:50:00,VALID,920.341,VALID,0,VALID,100,VALID,-0.101885,VALID,19.6038,VALID,337,VALID,0,
2004-04-04, 01:51:00,VALID,920.329,VALID,0,VALID,100,VALID,-0.0849042,VALID,19.5713,VALID,337,VALID,0,
2004-04-04, 01:52:00,VALID,920.308,VALID,0,VALID,100,VALID,-0.0679233,VALID,19.5653,VALID,337,VALID,0.0104167,
2004-04-04, 01:53:00,VALID,920.289,VALID,0,VALID,100,VALID,-0.0509425,VALID,19.5817,VALID,337,VALID,0.191134,
2004-04-04, 01:54:00,VALID,920.274,VALID,0,VALID,100,VALID,-0.0849042,VALID,19.5875,VALID,337,VALID,0.237805,
2004-04-04, 01:55:00,VALID,920.261,VALID,0,VALID,100,VALID,-0.101885,VALID,19.6004,VALID,337,VALID,0.0970486,
2004-04-04, 01:56:00,VALID,920.24,VALID,0,VALID,100,VALID,-0.118866,VALID,19.6165,VALID,337,VALID,0.0293445,
2004-04-04, 01:57:00,VALID,920.228,VALID,0,VALID,100,VALID,-0.101885,VALID,19.5937,VALID,337,VALID,0,
2004-04-04, 01:58:00,VALID,920.223,VALID,0,VALID,100,VALID,-0.0849042,VALID,19.5877,VALID,337,VALID,0,
2004-04-04, 01:59:00,VALID,920.21,VALID,0,VALID,100,VALID,-0.101885,VALID,19.5648,VALID,337,VALID,0,
2004-04-04, 02:00:00,VALID,920.194,VALID,0,VALID,100,VALID,-0.0849042,VALID,19.5745,VALID,337,VALID,0,
2004-04-04, 02:01:00,VALID,920.177,VALID,0,VALID,100,VALID,-0.0509425,VALID,19.578,VALID,337,VALID,0.180959,
2004-04-04, 02:02:00,VALID,920.151,VALID,0,VALID,100,VALID,0,VALID,19.5897,VALID,337,VALID,0.399639,
2004-04-04, 02:03:00,VALID,920.132,VALID,0,VALID,100,VALID,0.0169808,VALID,19.5539,VALID,338,VALID,0.428886,
2004-04-04, 02:04:00,VALID,920.106,VALID,0,VALID,100,VALID,0,VALID,19.5378,VALID,338,VALID,0.331055,
2004-04-04, 02:05:00,VALID,920.107,VALID,0,VALID,100,VALID,0,VALID,19.541,VALID,338,VALID,0.363281,
2004-04-04, 02:06:00,VALID,920.102,VALID,0,VALID,100,VALID,0.0339617,VALID,19.544,VALID,338,VALID,0.316679,
2004-04-04, 02:07:00,VALID,920.11,VALID,0,VALID,100,VALID,0.0169808,VALID,19.5572,VALID,338,VALID,0.287064,
2004-04-04, 02:08:00,VALID,920.117,VALID,0,VALID,100,VALID,0,VALID,19.5211,VALID,338,VALID,0.377083,
2004-04-04, 02:09:00,VALID,920.123,VALID,0,VALID,100,VALID,0.0169808,VALID,19.5057,VALID,338,VALID,0.359375,
2004-04-04, 02:10:00,VALID,920.107,VALID,0,VALID,100,VALID,0.0169808,VALID,19.4951,VALID,338,VALID,0.287427,
2004-04-04, 02:11:00,VALID,920.099,VALID,0,VALID,100,VALID,0.0169808,VALID,19.5087,VALID,338,VALID,0.178961,
2004-04-04, 02:12:00,VALID,920.075,VALID,0,VALID,100,VALID,0,VALID,19.4859,VALID,338,VALID,0.232376,
2004-04-04, 02:13:00,VALID,920.042,VALID,0,VALID,100,VALID,0,VALID,19.4568,VALID,338,VALID,0.227121,
2004-04-04, 02:14:00,VALID,919.999,VALID,0,VALID,100,VALID,0,VALID,19.4665,VALID,338,VALID,0.147905,
2004-04-04, 02:15:00,VALID,919.958,VALID,0,VALID,100,VALID,0,VALID,19.4695,VALID,338,VALID,0.0247713,
2004-04-04, 02:16:00,VALID,919.929,VALID,0,VALID,100,VALID,0.0169808,VALID,19.4702,VALID,338,VALID,0,
2004-04-04, 02:17:00,VALID,919.908,VALID,0,VALID,100,VALID,0,VALID,19.4635,VALID,338,VALID,0,
2004-04-04, 02:18:00,VALID,919.879,VALID,0,VALID,100,VALID,0,VALID,19.4603,VALID,338,VALID,0.0935683,
2004-04-04, 02:19:00,VALID,919.856,VALID,0,VALID,100,VALID,-0.0169808,VALID,19.4541,VALID,338,VALID,0.00838415,
2004-04-04, 02:20:00,VALID,919.835,VALID,0,VALID,100,VALID,0.0169808,VALID,19.4407,VALID,338,VALID,0,
2004-04-04, 02:21:00,VALID,919.846,VALID,0,VALID,100,VALID,0.0169808,VALID,19.4248,VALID,338,VALID,0,
2004-04-04, 02:22:00,VALID,919.825,VALID,0,VALID,100,VALID,0,VALID,19.4278,VALID,338,VALID,0,
2004-04-04, 02:23:00,VALID,919.822,VALID,0,VALID,100,VALID,0,VALID,19.4441,VALID,338,VALID,0,
2004-04-04, 02:24:00,VALID,919.814,VALID,0,VALID,100,VALID,0.0169808,VALID,19.4315,VALID,338,VALID,0,
2004-04-04, 02:25:00,VALID,919.798,VALID,0,VALID,100,VALID,0,VALID,19.4119,VALID,338,VALID,0,
2004-04-04, 02:26:00,VALID,919.783,VALID,0,VALID,100,VALID,0,VALID,19.4186,VALID,338,VALID,0,
2004-04-04, 02:27:00,VALID,919.766,VALID,0,VALID,100,VALID,0.0339617,VALID,19.4211,VALID,42,VALID,0.145712,
2004-04-04, 02:28:00,VALID,919.761,VALID,0,VALID,100,VALID,-0.0169808,VALID,19.4315,VALID,98,VALID,0.509629,
2004-04-04, 02:29:00,VALID,919.747,VALID,0,VALID,100,VALID,0.0339617,VALID,19.4151,VALID,109,VALID,0.532203,
2004-04-04, 02:30:00,VALID,919.728,VALID,0,VALID,100,VALID,0,VALID,19.4081,VALID,119,VALID,0.717226,
2004-04-04, 02:31:00,VALID,919.709,VALID,0,VALID,100,VALID,0,VALID,19.3731,VALID,122,VALID,0.670945,
2004-04-04, 02:32:00,VALID,919.701,VALID,0,VALID,100,VALID,0,VALID,19.3473,VALID,121,VALID,0.416602,
2004-04-04, 02:33:00,VALID,919.682,VALID,0,VALID,100,VALID,0,VALID,19.3217,VALID,120,VALID,0.442406,
2004-04-04, 02:34:00,VALID,919.661,VALID,0,VALID,100,VALID,0,VALID,19.3416,VALID,94,VALID,0.455078,
2004-04-04, 02:35:00,VALID,919.66,VALID,0,VALID,100,VALID,0,VALID,19.3247,VALID,59,VALID,0.602108,
2004-04-04, 02:36:00,VALID,919.654,VALID,0,VALID,100,VALID,0,VALID,19.3118,VALID,47,VALID,0.634146,
2004-04-04, 02:37:00,VALID,919.662,VALID,0,VALID,100,VALID,-0.0169808,VALID,19.3155,VALID,46,VALID,0.701126,
2004-04-04, 02:38:00,VALID,919.67,VALID,0,VALID,100,VALID,0,VALID,19.3055,VALID,42,VALID,0.71218,
2004-04-04, 02:39:00,VALID,919.676,VALID,0,VALID,100,VALID,0.0169808,VALID,19.3319,VALID,22,VALID,0.793341,
2004-04-04, 02:40:00,VALID,919.677,VALID,0,VALID,100,VALID,0,VALID,19.3152,VALID,12,VALID,0.700335,
2004-04-04, 02:41:00,VALID,919.676,VALID,0,VALID,100,VALID,0,VALID,19.3023,VALID,9,VALID,0.545759,
2004-04-04, 02:42:00,VALID,919.665,VALID,0,VALID,100,VALID,0,VALID,19.2892,VALID,9,VALID,0.617188,
2004-04-04, 02:43:00,VALID,919.671,VALID,0,VALID,100,VALID,-0.0169808,VALID,19.28,VALID,10,VALID,0.981399,
2004-04-04, 02:44:00,VALID,919.667,VALID,0,VALID,100,VALID,0,VALID,19.2539,VALID,14,VALID,0.923828,
2004-04-04, 02:45:00,VALID,919.659,VALID,0,VALID,100,VALID,0,VALID,19.244,VALID,20,VALID,0.703307,
2004-04-04, 02:46:00,VALID,919.65,VALID,0,VALID,100,VALID,0.0339617,VALID,19.2375,VALID,35,VALID,0.525586,
2004-04-04, 02:47:00,VALID,919.645,VALID,0,VALID,100,VALID,0,VALID,19.244,VALID,33,VALID,0.62391,
2004-04-04, 02:48:00,VALID,919.636,VALID,0,VALID,100,VALID,-0.0169808,VALID,19.2638,VALID,22,VALID,0.126189,
2004-04-04, 02:49:00,VALID,919.616,VALID,0,VALID,100,VALID,0,VALID,19.2767,VALID,22,VALID,0,
2004-04-04, 02:50:00,VALID,919.606,VALID,0,VALID,100,VALID,0,VALID,19.2698,VALID,34,VALID,0.192434,
2004-04-04, 02:51:00,VALID,919.591,VALID,0,VALID,100,VALID,-0.0509425,VALID,19.2929,VALID,35,VALID,0,
2004-04-04, 02:52:00,VALID,919.597,VALID,0,VALID,100,VALID,-0.0169808,VALID,19.2921,VALID,35,VALID,0,
2004-04-04, 02:53:00,VALID,919.592,VALID,0,VALID,100,VALID,-0.0509425,VALID,19.3125,VALID,35,VALID,0,
2004-04-04, 02:54:00,VALID,919.592,VALID,0,VALID,100,VALID,-0.0339617,VALID,19.3118,VALID,35,VALID,0,
2004-04-04, 02:55:00,VALID,919.593,VALID,0,VALID,100,VALID,-0.0509425,VALID,19.316,VALID,35,VALID,0,
2004-04-04, 02:56:00,VALID,919.594,VALID,0,VALID,100,VALID,-0.0169808,VALID,19.3125,VALID,35,VALID,0.0567708,
2004-04-04, 02:57:00,VALID,919.574,VALID,0,VALID,100,VALID,-0.0169808,VALID,19.3021,VALID,35,VALID,0.078125,
2004-04-04, 02:58:00,VALID,919.566,VALID,0,VALID,100,VALID,-0.0169808,VALID,19.3021,VALID,35,VALID,0.211868,
2004-04-04, 02:59:00,VALID,919.551,VALID,0,VALID,100,VALID,0,VALID,19.3095,VALID,35,VALID,0.231517,
2004-04-04, 03:00:00,VALID,919.541,VALID,0,VALID,100,VALID,0,VALID,19.312,VALID,35,VALID,0.131722,
2004-04-04, 03:01:00,VALID,919.537,VALID,0,VALID,100,VALID,-0.0169808,VALID,19.3381,VALID,35,VALID,0.245703,
2004-04-04, 03:02:00,VALID,919.529,VALID,0,VALID,100,VALID,-0.0509425,VALID,19.3644,VALID,34,VALID,0.442969,
2004-04-04, 03:03:00,VALID,919.511,VALID,0,VALID,100,VALID,-0.0339617,VALID,19.3704,VALID,27,VALID,0.647222,
2004-04-04, 03:04:00,VALID,919.505,VALID,0,VALID,100,VALID,-0.0339617,VALID,19.3835,VALID,26,VALID,0.603125,
2004-04-04, 03:05:00,VALID,919.512,VALID,0,VALID,100,VALID,-0.0339617,VALID,19.39,VALID,26,VALID,0.473704,
2004-04-04, 03:06:00,VALID,919.506,VALID,0,VALID,100,VALID,-0.0339617,VALID,19.3863,VALID,26,VALID,0.280678,
2004-04-04, 03:07:00,VALID,919.512,VALID,0,VALID,100,VALID,-0.0339617,VALID,19.3828,VALID,26,VALID,0.255269,
2004-04-04, 03:08:00,VALID,919.5,VALID,0,VALID,100,VALID,-0.0509425,VALID,19.3475,VALID,26,VALID,0.372142,
2004-04-04, 03:09:00,VALID,919.497,VALID,0,VALID,100,VALID,-0.0339617,VALID,19.3254,VALID,26,VALID,0.552326,
2004-04-04, 03:10:00,VALID,919.488,VALID,0,VALID,100,VALID,-0.0339617,VALID,19.3125,VALID,27,VALID,0.580543,
2004-04-04, 03:11:00,VALID,919.487,VALID,0,VALID,100,VALID,-0.0339617,VALID,19.3055,VALID,28,VALID,0.61109,
2004-04-04, 03:12:00,VALID,919.493,VALID,0,VALID,100,VALID,-0.0339617,VALID,19.3093,VALID,28,VALID,0.669829,
2004-04-04, 03:13:00,VALID,919.497,VALID,0,VALID,100,VALID,-0.0169808,VALID,19.316,VALID,15,VALID,0.588655,
2004-04-04, 03:14:00,VALID,919.503,VALID,0,VALID,100,VALID,-0.0339617,VALID,19.3058,VALID,14,VALID,0.601926,
2004-04-04, 03:15:00,VALID,919.511,VALID,0,VALID,100,VALID,-0.0339617,VALID,19.312,VALID,14,VALID,0.570858,
2004-04-04, 03:16:00,VALID,919.513,VALID,0,VALID,100,VALID,-0.0169808,VALID,19.3155,VALID,14,VALID,0.479403,
2004-04-04, 03:17:00,VALID,919.498,VALID,0,VALID,100,VALID,0,VALID,19.3189,VALID,14,VALID,0.3,
2004-04-04, 03:18:00,VALID,919.507,VALID,0,VALID,100,VALID,0,VALID,19.3021,VALID,14,VALID,0.139535,
2004-04-04, 03:19:00,VALID,919.495,VALID,0,VALID,100,VALID,0,VALID,19.3152,VALID,14,VALID,0.136308,
2004-04-04, 03:20:00,VALID,919.497,VALID,0,VALID,100,VALID,-0.0169808,VALID,19.3286,VALID,14,VALID,0.012718,
2004-04-04, 03:21:00,VALID,919.511,VALID,0,VALID,100,VALID,-0.0169808,VALID,19.3316,VALID,14,VALID,0,
2004-04-04, 03:22:00,VALID,919.521,VALID,0,VALID,100,VALID,-0.0339617,VALID,19.3383,VALID,14,VALID,0.0348704,
2004-04-04, 03:23:00,VALID,919.522,VALID,0,VALID,100,VALID,-0.0169808,VALID,19.348,VALID,14,VALID,0.188368,
2004-04-04, 03:24:00,VALID,919.523,VALID,0,VALID,100,VALID,-0.0339617,VALID,19.351,VALID,14,VALID,0.00163517,
2004-04-04, 03:25:00,VALID,919.521,VALID,0,VALID,100,VALID,0,VALID,19.3602,VALID,14,VALID,0.00114329,
2004-04-04, 03:26:00,VALID,919.495,VALID,0,VALID,100,VALID,0,VALID,19.3642,VALID,14,VALID,0,
2004-04-04, 03:27:00,VALID,919.489,VALID,0,VALID,100,VALID,0,VALID,19.3537,VALID,14,VALID,0,
2004-04-04, 03:28:00,VALID,919.48,VALID,0,VALID,100,VALID,0,VALID,19.3507,VALID,14,VALID,0,
2004-04-04, 03:29:00,VALID,919.481,VALID,0,VALID,100,VALID,-0.0169808,VALID,19.3416,VALID,14,VALID,0,
2004-04-04, 03:30:00,VALID,919.484,VALID,0,VALID,100,VALID,-0.0169808,VALID,19.3411,VALID,14,VALID,0,
2004-04-04, 03:31:00,VALID,919.482,VALID,0,VALID,100,VALID,0,VALID,19.3582,VALID,14,VALID,0.0650391,
2004-04-04, 03:32:00,VALID,919.478,VALID,0,VALID,100,VALID,0,VALID,19.3542,VALID,14,VALID,0.0102307,
2004-04-04, 03:33:00,VALID,919.472,VALID,0,VALID,100,VALID,-0.0169808,VALID,19.3386,VALID,14,VALID,0.276486,
2004-04-04, 03:34:00,VALID,919.455,VALID,0,VALID,100,VALID,-0.0339617,VALID,19.3289,VALID,14,VALID,0.176897,
2004-04-04, 03:35:00,VALID,919.446,VALID,0,VALID,100,VALID,-0.0339617,VALID,19.3254,VALID,14,VALID,0,
2004-04-04, 03:36:00,VALID,919.417,VALID,0,VALID,100,VALID,-0.0509425,VALID,19.3252,VALID,12,VALID,0.148615,
2004-04-04, 03:37:00,VALID,919.431,VALID,0,VALID,100,VALID,0,VALID,19.3152,VALID,1,VALID,0.146341,
2004-04-04, 03:38:00,VALID,919.417,VALID,0.2,VALID,100,VALID,-0.0169808,VALID,19.3023,VALID,347,VALID,0.0992543,
2004-04-04, 03:39:00,VALID,919.426,VALID,0,VALID,100,VALID,-0.0169808,VALID,19.3093,VALID,251,VALID,0.353924,
2004-04-04, 03:40:00,VALID,919.432,VALID,0,VALID,100,VALID,-0.0339617,VALID,19.3122,VALID,249,VALID,0.207422,
2004-04-04, 03:41:00,VALID,919.423,VALID,0,VALID,100,VALID,-0.0339617,VALID,19.3453,VALID,249,VALID,0.0236192,
2004-04-04, 03:42:00,VALID,919.44,VALID,0,VALID,100,VALID,-0.0339617,VALID,19.3572,VALID,249,VALID,0.215402,
2004-04-04, 03:43:00,VALID,919.45,VALID,0,VALID,100,VALID,-0.0169808,VALID,19.3676,VALID,249,VALID,0.0993823,
2004-04-04, 03:44:00,VALID,919.457,VALID,0,VALID,100,VALID,-0.0509425,VALID,19.3776,VALID,249,VALID,0.0166266,
2004-04-04, 03:45:00,VALID,919.471,VALID,0,VALID,100,VALID,0,VALID,19.3602,VALID,249,VALID,0,